Weather History for KLBL - May, 2014

Change the Weather History Date:

Tuesday, May 6, 2014

  Actual Average Record
Temperature  
Mean Temperature 72 °F -  
Max Temperature 95 °F 76 °F 96 °F (2004)
Min Temperature 48 °F 47 °F 35 °F (1991)
Cooling Degree Days 6    
Growing Degree Days 22 (Base 50)    
Moisture  
Dew Point 30 °F    
Average Humidity 22    
Maximum Humidity 59    
Minimum Humidity 10    
Precipitation  
Precipitation 0.00 in - - ()
Sea Level Pressure  
Sea Level Pressure 29.60 in    
Wind  
Wind Speed 13 mph (SW)    
Max Wind Speed 32 mph    
Max Gust Speed 41 mph    
Visibility 10 miles    
Events      
Averages and records for this station are not official NWS values.
T = Trace of Precipitation, MM = Missing Value Source: NWS Daily Summary

Daily Weather History Graph

Daily Weather History Graph

Search for Another Location

Airport or City:

Trip Planner

Search our weather history database for the weather conditions in past years. The results will help you decide how hot, cold, wet, or windy it might be!

Date:

Astronomy

May. 06, 2014 Rise Set
Actual Time 6:44 AM CDT 8:37 PM CDT
Civil Twilight 6:15 AM CDT 9:05 PM CDT
Nautical Twilight 5:41 AM CDT 9:40 PM CDT
Astronomical Twilight 5:04 AM CDT 10:17 PM CDT
Moon 1:00 PM CDT (5/6) 1:59 AM CDT (5/6)
Length of Visible Light 14h 50m
Length of Day
13h 53m
Waxing Crescent, 46% of the Moon is Illuminated
May 6
Waxing Crescent
May 6
First Quarter
May 14
Full
May 21
Last Quarter
May 28
New

Hourly Weather History & Observations

Time (CDT) Temp. Dew Point Humidity Pressure Visibility Wind Dir Wind Speed Gust Speed Precip Events Conditions
12:15 AM 68.0 °F 44.6 °F 43% 29.70 in 10.0 mi ESE 13.8 mph - N/A   Clear
12:35 AM 66.2 °F 44.6 °F 46% 29.70 in 10.0 mi ESE 13.8 mph - N/A   Clear
12:55 AM 66.2 °F 42.8 °F 43% 29.69 in 10.0 mi ESE 13.8 mph - N/A   Clear
1:15 AM 64.4 °F 42.8 °F 45% 29.68 in 10.0 mi ESE 10.4 mph - N/A   Clear
1:35 AM 62.6 °F 42.8 °F 48% 29.67 in 10.0 mi ESE 11.5 mph - N/A   Clear
1:55 AM 60.8 °F 42.8 °F 52% 29.66 in 10.0 mi ESE 11.5 mph - N/A   Clear
2:15 AM 59.0 °F 41.0 °F 51% 29.65 in 10.0 mi SE 10.4 mph - N/A   Clear
2:35 AM 57.2 °F 42.8 °F 59% 29.64 in 10.0 mi SSE 5.8 mph - N/A   Clear
6:55 AM 48.2 °F 33.8 °F 58% 29.63 in 10.0 mi SSW 8.1 mph - N/A   Clear
7:15 AM 48.2 °F 33.8 °F 58% 29.63 in 10.0 mi SW 6.9 mph - N/A   Clear
7:35 AM 50.0 °F 33.8 °F 54% 29.63 in 10.0 mi SW 6.9 mph - N/A   Clear
7:55 AM 53.6 °F 35.6 °F 51% 29.64 in 10.0 mi SSW 5.8 mph - N/A   Clear
8:15 AM 57.2 °F 37.4 °F 48% 29.65 in 10.0 mi SSW 6.9 mph - N/A   Clear
9:15 AM 64.4 °F 33.8 °F 32% 29.65 in 10.0 mi NW 5.8 mph - N/A   Clear
9:35 AM 66.2 °F 33.8 °F 30% 29.65 in 10.0 mi West 6.9 mph - N/A   Clear
9:55 AM 69.8 °F 32.0 °F 25% 29.65 in 10.0 mi West 9.2 mph - N/A   Clear
10:15 AM 73.4 °F 33.8 °F 23% 29.65 in 10.0 mi West 6.9 mph - N/A   Clear
10:55 AM 78.8 °F 35.6 °F 21% 29.65 in 10.0 mi West 8.1 mph - N/A   Clear
11:15 AM 82.4 °F 35.6 °F 19% 29.64 in 10.0 mi WNW 8.1 mph - N/A   Clear
11:35 AM 84.2 °F 35.6 °F 18% 29.64 in 10.0 mi WNW 5.8 mph - N/A   Clear
11:55 AM 87.8 °F 30.2 °F 13% 29.63 in 10.0 mi NW 8.1 mph - N/A   Clear
12:15 PM 87.8 °F 30.2 °F 13% 29.62 in 10.0 mi WSW 5.8 mph - N/A   Clear
12:35 PM 87.8 °F 28.4 °F 12% 29.61 in 10.0 mi WNW 4.6 mph - N/A   Clear
12:55 PM 89.6 °F 28.4 °F 11% 29.60 in 10.0 mi SSW 3.5 mph - N/A   Clear
1:15 PM 91.4 °F 28.4 °F 10% 29.59 in 10.0 mi South 10.4 mph - N/A   Clear
1:35 PM 93.2 °F 30.2 °F 11% 29.58 in 10.0 mi SW 23.0 mph 29.9 mph N/A   Clear
1:55 PM 93.2 °F 30.2 °F 11% 29.57 in 10.0 mi SSW 12.7 mph 24.2 mph N/A   Clear
2:15 PM 95.0 °F 32.0 °F 11% 29.57 in 10.0 mi SW 24.2 mph 33.4 mph N/A   Clear
2:35 PM 95.0 °F 30.2 °F 10% 29.56 in 10.0 mi SW 27.6 mph 38.0 mph N/A   Clear
2:55 PM 93.2 °F 30.2 °F 11% 29.57 in 10.0 mi SW 32.2 mph 38.0 mph N/A   Clear
3:15 PM 93.2 °F 30.2 °F 11% 29.57 in 10.0 mi SW 27.6 mph 40.3 mph N/A   Clear
3:35 PM 93.2 °F 30.2 °F 11% 29.56 in 10.0 mi SSW 25.3 mph 36.8 mph N/A   Clear
3:55 PM 93.2 °F 30.2 °F 11% 29.55 in 10.0 mi SW 24.2 mph 40.3 mph N/A   Clear
4:15 PM 93.2 °F 30.2 °F 11% 29.55 in 10.0 mi SW 29.9 mph 41.4 mph N/A   Clear
4:35 PM 93.2 °F 30.2 °F 11% 29.55 in 9.0 mi SW 28.8 mph 34.5 mph N/A   Clear
4:55 PM 93.2 °F 28.4 °F 10% 29.54 in 10.0 mi SSW 23.0 mph 38.0 mph N/A   Clear
5:15 PM 91.4 °F 28.4 °F 10% 29.54 in 10.0 mi SSW 29.9 mph 36.8 mph N/A   Clear
5:35 PM 91.4 °F 28.4 °F 10% 29.54 in 10.0 mi SW 26.5 mph 32.2 mph N/A   Clear
5:55 PM 91.4 °F 28.4 °F 10% 29.54 in 10.0 mi SW 28.8 mph 34.5 mph N/A   Clear
6:15 PM 91.4 °F 28.4 °F 10% 29.54 in 10.0 mi SW 28.8 mph 33.4 mph N/A   Clear
6:35 PM 89.6 °F 28.4 °F 11% 29.54 in 10.0 mi SW 23.0 mph 34.5 mph N/A   Clear
6:55 PM 89.6 °F 26.6 °F 10% 29.54 in 10.0 mi SW 20.7 mph 28.8 mph N/A   Clear
7:15 PM 87.8 °F 26.6 °F 11% 29.54 in 10.0 mi SW 20.7 mph 28.8 mph N/A   Clear
7:35 PM 87.8 °F 26.6 °F 11% 29.55 in 10.0 mi SW 17.3 mph 25.3 mph N/A   Clear
7:55 PM 86.0 °F 24.8 °F 11% 29.55 in 10.0 mi SW 17.3 mph - N/A   Clear
8:15 PM 84.2 °F 24.8 °F 11% 29.56 in 10.0 mi SW 15.0 mph - N/A   Clear
8:35 PM 80.6 °F 21.2 °F 11% 29.56 in 10.0 mi SW 12.7 mph - N/A   Clear
8:55 PM 77.0 °F 19.4 °F 12% 29.56 in 10.0 mi SW 10.4 mph - N/A   Clear
9:15 PM 71.6 °F 15.8 °F 12% 29.56 in 10.0 mi SSW 10.4 mph - N/A   Clear
9:35 PM 69.8 °F 14.0 °F 12% 29.57 in 10.0 mi SSW 10.4 mph - N/A   Clear
9:55 PM 66.2 °F 15.8 °F 14% 29.57 in 10.0 mi SW 11.5 mph - N/A   Clear
10:15 PM 64.4 °F 15.8 °F 15% 29.57 in 10.0 mi SSW 10.4 mph - N/A   Clear
10:35 PM 62.6 °F 17.6 °F 18% 29.57 in 10.0 mi SSW 10.4 mph - N/A   Clear
10:55 PM 60.8 °F 19.4 °F 20% 29.57 in 10.0 mi SSW 8.1 mph - N/A   Clear
11:15 PM 62.6 °F 19.4 °F 19% 29.58 in 10.0 mi SSW 11.5 mph - N/A   Clear
11:35 PM 59.0 °F 19.4 °F 22% 29.58 in 10.0 mi SSW 11.5 mph - N/A   Clear
11:55 PM 64.4 °F 21.2 °F 19% 29.58 in 10.0 mi SSW 11.5 mph - N/A   Clear